Wind_Speed
18 14 11 9 10 9 9 11 17 18 13 11 11 11 12 12 10 12 13 14 13 10 9 11 12 12 14 14 15 15 15 14 14 15 15 15 13 13 13 11 7 7 9
18 14 13 11 11 12 12 15 19 17 15 15 13 11 10 10 10 10 10 11 12 11 9 10 12 14 15 16 17 16 15 13 11 11 10 10 10 10 9 9 15 9 8
19 15 12 11 13 13 13 15 16 16 15 14 12 10 9 9 10 9 8 8 9 10 9 11 12 13 16 16 15 15 13 14 15 12 10 8 7 7 7 6 5 7 5
18 16 13 12 14 14 13 14 15 15 14 13 12 12 11 11 9 9 9 9 9 9 9 11 12 14 14 15 14 11 10 11 10 5 2 7 7 5 5 6 6 5 4
18 16 15 14 14 15 14 13 13 13 13 13 12 12 11 10 10 9 8 9 9 10 9 11 13 14 15 15 12 10 9 8 5 1 6 4 7 5 3 4 3 2 4
17 16 17 15 15 14 13 12 12 13 13 12 11 10 10 10 10 9 7 8 9 10 11 12 13 13 13 11 8 7 7 3 4 6 5 6 4 4 1 1 3 3 3
18 15 14 16 14 13 12 11 10 10 10 10 10 10 9 9 9 8 7 7 8 10 11 11 11 10 8 5 4 4 5 6 10 5 2 2 2 3 1 1 1 3 5
16 16 13 15 15 12 11 10 9 9 8 8 8 8 8 8 7 7 7 7 7 7 9 9 8 6 3 1 2 4 5 7 11 0 2 3 1 4 3 3 4 5 6
15 16 13 12 12 13 11 9 8 7 6 6 6 6 6 7 6 6 6 6 6 6 6 5 4 2 2 4 5 6 8 9 11 8 4 1 2 5 5 6 7 9 10
11 13 14 14 12 11 10 9 8 7 6 5 4 5 6 6 7 8 5 3 4 4 5 5 5 5 5 7 7 9 11 11 10 10 7 2 5 10 10 9 9 11 12
9 11 11 11 11 11 11 9 9 7 6 5 5 4 2 4 2 2 1 2 1 2 3 4 5 7 8 8 7 8 11 8 9 9 9 4 8 13 14 13 13 13 14
15 13 11 11 10 9 13 8 8 5 4 4 3 2 1 1 1 1 1 2 1 2 3 3 5 7 9 8 10 6 7 8 10 12 12 12 13 16 17 16 17 17 18
16 14 12 10 9 8 8 8 8 6 4 3 2 1 0 1 1 2 3 4 2 3 5 5 7 6 7 8 9 10 11 12 13 13 13 14 16 19 19 18 19 20 21
16 14 12 10 8 8 5 7 4 5 5 4 3 1 1 3 0 2 3 2 3 4 4 7 8 7 10 10 11 12 13 14 15 16 16 19 17 18 21 19 19 19 20
14 13 12 10 8 9 7 7 4 5 2 4 2 3 3 5 3 4 3 5 5 5 7 8 9 10 11 13 13 13 14 16 17 17 18 20 21 22 20 21 22 22 22
10 10 8 8 8 9 4 8 7 6 4 4 4 4 5 3 3 4 5 6 6 7 9 10 13 13 14 15 16 16 16 17 19 19 21 21 22 23 22 22 20 20 22
9 9 9 10 10 8 8 9 7 5 5 5 4 7 7 5 4 4 3 4 6 7 8 9 10 13 15 16 18 18 18 19 20 21 20 22 23 24 23 23 17 21 19
12 9 6 7 8 8 9 9 7 6 5 5 5 7 8 8 7 6 5 6 7 7 8 9 10 11 13 14 15 16 18 19 19 20 21 22 20 20 19 15 13 15 17
11 10 9 10 9 10 11 9 8 8 7 7 7 8 9 9 8 7 7 8 8 7 9 10 10 10 12 12 15 17 17 17 17 17 16 9 12 16 18 21 23 18 21
11 11 11 11 13 14 14 14 11 10 11 8 9 8 9 10 10 8 9 10 9 9 10 12 12 12 11 14 20 17 15 15 13 10 12 13 15 17 19 21 24 22 24
12 12 12 14 15 16 16 13 12 10 12 12 11 10 11 10 11 10 9 10 9 11 12 13 13 11 11 16 13 19 12 9 8 14 13 11 19 19 19 22 21 22 23
14 12 13 14 13 10 9 8 9 9 10 10 10 11 11 12 12 12 11 10 11 9 13 14 15 13 9 15 16 12 5 7 18 10 12 12 23 18 22 22 21 21 25
13 14 14 13 12 10 10 11 11 13 10 10 8 9 11 12 13 12 12 11 10 10 12 13 14 15 12 12 14 11 5 5 17 9 8 17 16 23 23 22 23 25 21
13 12 14 14 13 13 12 10 10 9 9 8 8 9 10 11 11 11 11 10 11 11 12 11 13 12 13 13 11 11 7 8 4 7 13 17 26 24 26 26 27 21 25
16 15 14 14 13 12 10 10 10 10 11 9 9 9 9 9 10 10 10 11 11 11 11 12 13 14 12 12 12 13 12 11 9 12 10 21 23 24 26 27 21 27 30
17 16 16 15 14 13 12 11 10 11 11 10 9 9 7 8 9 10 10 12 12 11 11 12 12 13 13 13 13 13 13 13 15 16 12 19 22 24 26 20 26 30 27
Wind_Direction
108 119 128 124 118 109 99 103 121 129 123 119 119 114 113 113 106 110 115 125 132 112 104 105 101 106 102 102 100 98 103 112 110 107 105 100 93 93 98 95 100 87 95
116 123 129 125 119 116 114 116 123 127 125 125 125 114 107 103 103 105 106 117 121 120 111 111 109 103 104 100 97 98 103 107 110 109 112 103 100 98 104 88 94 95 92
122 126 122 123 120 118 120 121 122 122 122 121 118 114 102 98 96 102 118 111 120 117 115 114 115 117 111 102 101 98 97 102 106 109 118 104 103 108 114 121 101 84 87
126 128 126 124 121 122 125 124 121 118 117 117 114 111 103 98 88 85 98 119 114 110 111 116 118 113 109 104 100 98 96 102 107 120 200 106 108 107 116 121 119 134 126
129 127 131 128 126 125 125 123 120 116 113 110 109 110 106 112 105 87 91 106 107 112 119 119 120 117 111 106 104 98 90 100 108 88 88 85 105 98 103 124 79 61 162
129 126 132 131 131 129 127 124 117 112 108 103 99 97 100 106 107 102 98 102 109 116 124 124 128 124 120 109 96 85 74 69 315 272 87 112 79 30 58 137 198 234 250
128 129 131 134 136 136 132 128 121 113 106 99 94 90 90 96 105 103 95 91 107 114 123 130 128 131 129 110 82 60 44 26 359 85 110 121 157 349 351 326 298 281 279
132 137 131 135 140 142 141 137 129 121 114 105 96 90 87 87 94 95 89 92 102 111 123 134 141 146 152 77 6 354 358 351 328 245 329 127 182 315 313 323 311 298 289
141 138 140 136 139 143 146 142 136 128 118 107 97 89 82 80 81 88 102 110 121 132 142 156 172 199 259 293 307 321 323 328 326 311 305 199 145 351 334 309 302 299 296
114 131 142 143 142 139 140 146 142 137 128 112 93 82 77 85 68 64 85 94 132 155 168 192 215 240 265 280 298 308 311 311 295 296 293 204 302 315 317 312 307 302 297
138 139 146 145 145 151 147 148 144 136 117 113 94 75 49 204 73 157 160 284 193 198 223 238 249 259 271 277 288 303 303 283 293 294 291 287 296 301 303 298 297 298 302
160 165 161 154 158 160 155 155 168 155 168 148 150 123 173 130 176 236 182 348 329 297 267 293 289 288 277 271 269 276 280 285 292 286 282 278 290 295 294 292 290 290 290
170 169 174 165 170 177 172 180 183 160 170 160 175 262 68 261 164 240 217 221 245 319 261 240 262 278 266 294 289 287 289 290 287 289 290 290 292 293 291 287 286 287 287
167 173 177 178 173 182 180 199 149 184 182 197 128 303 263 253 242 306 291 300 234 250 309 270 283 286 284 280 280 283 285 287 288 292 290 290 285 292 294 290 288 287 286
168 166 176 173 171 179 183 193 187 90 150 67 87 29 17 341 12 309 341 289 310 301 288 276 275 277 283 280 273 277 285 284 282 282 285 286 283 285 291 292 287 285 285
158 166 164 165 171 184 102 136 123 104 113 106 85 39 28 24 350 316 319 322 322 322 320 308 312 310 294 296 288 281 283 285 285 285 285 289 292 282 285 286 289 293 296
137 121 112 126 132 137 119 112 127 137 128 104 62 33 28 36 12 358 347 335 336 325 325 317 309 304 302 300 302 299 299 291 294 291 297 296 291 292 299 288 292 297 304
130 111 119 118 122 137 137 130 123 112 108 88 67 55 38 31 30 30 20 10 354 350 348 339 331 319 314 321 314 301 296 295 293 294 293 296 298 317 327 9 1 356 344
135 133 130 141 141 138 133 122 129 120 95 84 95 69 52 40 34 47 38 18 16 7 5 356 346 340 329 325 316 306 298 295 297 302 304 358 358 354 355 350 346 344 333
143 138 131 137 151 155 147 142 125 112 101 89 76 68 59 46 44 51 40 33 30 25 14 8 356 348 336 338 323 310 307 301 301 331 1 351 11 10 356 350 347 334 333
138 134 135 139 133 133 121 114 103 98 96 82 76 65 58 54 45 50 44 36 36 33 24 16 6 357 358 352 341 328 308 287 29 5 343 351 11 358 353 345 340 334 329
147 142 139 139 135 138 140 125 126 124 109 104 90 70 61 55 50 45 46 39 37 32 28 23 20 7 10 15 359 324 357 312 7 16 19 12 359 356 345 341 338 336 330
154 151 147 147 145 144 138 126 125 118 122 107 94 75 62 58 53 50 49 46 42 41 33 28 23 23 7 18 28 21 342 358 337 23 7 360 5 347 342 339 335 331 332
150 151 154 151 148 144 152 149 153 148 129 113 107 91 72 62 57 55 53 51 50 47 42 34 29 26 23 20 17 20 18 341 340 328 333 333 348 341 339 337 330 333 331
152 151 149 147 145 144 142 144 143 129 132 128 114 99 88 76 67 60 59 55 54 51 46 43 36 34 31 23 14 4 3 354 344 331 316 326 331 337 334 330 336 330 330
157 153 151 147 140 136 136 136 134 138 137 134 127 123 112 92 72 63 61 58 55 52 44 40 37 34 30 26 17 11 3 354 349 337 330 329 332 332 331 337 332 329 325
Height
790 798 801 804 806 807 808 808 808 810 812 812 813 815 817 818 818 819 820 820 819 819 818 820 820 820 818 819 818 819 820 821 822 824 824 825 826 826 827 827 828 830 829
793 801 802 805 807 809 810 810 811 813 814 816 817 817 818 818 819 820 821 822 822 822 821 821 821 821 821 821 821 822 823 823 824 824 825 825 826 827 828 829 829 830 830
796 802 805 807 809 811 812 813 814 816 817 818 819 819 819 820 821 822 823 823 824 823 823 823 824 824 823 823 824 824 826 826 825 825 825 827 829 829 830 831 831 832 833
798 803 807 808 810 813 815 816 817 818 819 821 822 822 822 822 823 824 824 824 825 826 826 826 826 826 826 825 826 829 829 828 827 827 826 827 830 830 830 831 832 833 834
800 805 807 809 812 815 818 820 820 821 821 822 823 824 824 825 825 825 826 826 826 827 828 828 828 829 828 829 830 831 831 829 828 827 829 830 830 830 831 833 833 833 834
801 807 809 811 814 816 819 821 823 823 824 824 825 825 826 826 827 828 827 828 828 828 829 829 831 831 832 832 833 832 832 830 828 827 830 832 832 831 832 833 833 833 833
803 810 812 813 816 818 820 822 824 825 825 826 827 827 828 828 829 829 829 829 829 830 830 832 832 833 834 834 833 833 832 830 827 829 830 831 831 831 832 832 832 832 833
805 812 815 815 817 820 821 823 825 826 827 828 829 829 829 829 830 830 830 831 831 832 833 834 835 835 836 836 835 834 833 832 830 829 830 829 830 831 832 832 832 832 832
807 811 816 818 819 821 823 825 826 827 828 829 829 830 831 831 831 831 832 832 833 833 834 836 837 837 837 837 836 835 834 833 831 828 830 828 829 831 832 832 832 832 832
809 813 816 819 821 823 824 826 828 829 829 830 830 831 831 832 833 833 833 834 834 835 835 836 836 836 836 836 835 834 834 833 831 829 828 826 829 831 831 831 830 831 830
813 815 817 819 822 824 826 827 828 830 831 831 831 832 832 832 833 833 834 834 834 835 835 835 835 834 834 833 833 832 832 832 830 828 828 826 827 829 829 829 829 828 828
812 815 818 820 822 824 825 828 829 831 831 832 832 833 832 833 834 834 834 833 834 834 834 834 834 834 833 832 829 830 829 829 829 828 826 825 826 827 827 826 826 825 825
808 812 817 820 822 823 822 825 826 828 830 832 834 833 833 833 833 833 833 832 832 832 832 832 832 831 831 831 830 830 829 829 827 825 824 823 823 824 824 823 822 822 822
806 811 816 819 822 823 824 826 825 828 830 830 832 834 833 832 832 833 831 832 832 831 832 832 830 830 831 830 830 829 829 828 826 824 822 821 820 821 821 820 819 818 817
805 810 815 818 821 823 825 826 826 827 830 831 834 834 834 832 832 832 831 831 830 829 829 829 828 827 827 827 826 825 825 824 823 822 820 818 817 816 816 815 814 814 813
807 811 816 818 821 824 824 824 827 831 833 834 835 835 835 835 835 833 832 832 832 832 831 830 828 827 826 824 823 822 821 820 819 818 816 814 813 811 811 810 810 810 810
809 813 817 818 821 823 824 826 830 833 834 835 835 834 834 834 835 835 834 835 834 834 833 831 829 827 825 824 822 820 819 818 816 815 813 812 810 808 807 806 807 807 807
810 815 819 821 822 823 825 828 832 834 835 835 835 835 836 836 835 835 836 836 835 834 833 832 830 827 825 823 821 820 817 815 813 812 811 810 807 805 805 807 805 805 805
811 816 819 820 822 824 826 829 831 832 834 834 835 836 835 836 837 837 836 836 835 835 834 832 831 829 826 824 822 818 815 813 810 809 809 809 807 805 806 805 805 804 803
813 816 818 819 821 823 825 828 830 832 832 836 837 837 838 838 838 838 838 837 837 836 836 834 832 830 828 825 821 816 813 811 810 808 808 809 807 807 807 806 804 803 800
813 815 817 819 822 824 826 828 831 834 834 838 839 840 839 839 840 839 839 839 838 838 838 836 834 832 829 827 822 817 810 808 809 810 811 811 810 811 810 809 807 805 802
812 816 818 820 823 826 829 830 832 835 837 839 841 842 842 841 841 841 841 841 840 840 839 838 837 835 832 831 828 819 811 805 811 813 814 814 815 815 813 811 808 805 802
811 815 818 821 823 826 828 831 834 834 838 839 842 843 844 843 843 844 843 843 843 843 842 841 840 838 836 835 834 834 826 822 824 814 816 818 818 817 815 812 808 805 802
811 815 818 821 824 826 828 831 832 833 836 841 843 845 845 846 847 846 846 847 845 845 844 845 843 842 840 839 838 839 839 838 832 822 818 820 820 818 816 813 809 805 802
811 815 819 821 824 826 828 830 832 835 839 842 844 845 847 849 850 849 849 847 847 847 848 846 846 845 844 844 843 842 839 838 835 834 826 823 822 820 818 813 809 805 801
809 814 818 820 823 826 828 831 833 837 839 842 844 847 849 850 850 850 849 848 849 850 850 849 849 848 848 847 846 845 844 842 840 837 832 828 825 822 818 813 810 806 801